Retour au catalogue

KOREASAT 1

ActifCommunicationsGEO
NORAD 23639·PAYLOAD·🇰🇷 South Korea

Lancé Aug 5, 1995 depuis Cape Canaveral Space Force Station

Loading…

TLE

FraisSource: Space-Track

Époque: Sep 14, 2026, 16:08 UTC

1 23639U 95041A   26257.67225478 -.00000360  00000-0  00000-0 0  9995
2 23639  14.7268 357.9252 0005678 240.1849 128.3868  0.99671133113426

Suivez KOREASAT 1 en temps réel avec AllMySat

Download on the App Store